User: anonymous   Login
Location: Unspecified
(0.0000°N, 0.0000°E)
Time: 11:20:43
(UTC+02:00)
Language:

ATLAS 2AS CENTAUR R/B - Orbit

View from above orbital plane
View from above orbital plane
View from above satellite
View from above satellite

Ground track
Ground track

The orbit data is extracted from the following two-line orbital elements,

1 28096U 03054B   17289.28336706 0.00000000  00000-0  00000-0 0    02
2 28096  63.6665 111.6854 0266000 260.6567  99.3433 13.40831415    02
Epoch (UTC): 16 October 2017 06:48:02
Eccentricity: 0.0266000
inclination: 63.6665°
perigee height: 907 km
apogee height: 1305 km
right ascension of ascending node: 111.6854°
argument of perigee: 260.6567°
revolutions per day: 13.40831415
mean anomaly at epoch: 99.3433°
orbit number at epoch: 0

The dashed part of the orbit path shows where the satellite is in the earth's shadow,  

DLR